www.pogodaiklimat.ru

Погода и климат >> Архив погоды >> Россия >> Приморский край >> Красный Яр


ПОГОДА в Красном Яре

  • Прогноз погоды в Красном Яре
  • Монитор погоды в Красном Яре

АРХИВ ПОГОДЫ в Красном Яре

Время (UTC), дата Ветер
(напр.,м/с)
 
Видим.   Явления Облачность Т
(С)
Тd
(С)
f
(%)
Тe
(С)
Тes
(С)
Комфортность P
(гПа)
Po
(гПа)
Тmin
(С)
Tmax
(С)
R
(мм)
R24
(мм)
S
(см)
03 16.09 ЮЗ 1 50 км 6/5 600 м
[Cu hum Ci fib]
+18.1 +11.1 64 +19 +25 1012.1 996.7
06 16.09 СЗ 2 50 км 6/6 600 м
[Cu med, cong]
+19.3 +10.0 55 +21 +23 комфорт 1009.9 994.9
09 16.09 штиль 0 50 км 3/3 600 м
[Cu hum]
+14.1 +4.9 54 +14 +14 1012.0 996.7 +21.3
12 16.09 штиль 0 20 км ясно +3.8 +3.6 99 +3 +3 1015.4 999.5
15 16.09 штиль 0 20 км ясно +0.9 +0.6 98 -1 -1 1016.8 1000.6
18 16.09 штиль 0 20 км ясно -0.6 -0.6 100 -2 -2 1017.5 1001.2
21 16.09 штиль 0 200 м туман ясно -1.2 -1.3 99 -3 -3 1018.2 1001.8 -1.7
00 17.09 З 1 50 км {туман} ясно +8.0 +4.6 79 +7 +14 1017.9 1002.1
03 17.09 ЮЗ 1 50 км ясно +16.9 -0.2 31 +18 +30 опасность
простуды
1016.1 1000.8
06 17.09 СЗ 1 50 км ясно +18.1 0.0 29 +19 +25 1013.9 998.7
09 17.09 штиль 0 50 км ясно +11.6 +8.1 79 +11 +11 1013.3 997.8 +18.5
12 17.09 штиль 0 50 км ясно +3.4 +3.3 99 +2 +2 1012.9 997.0
15 17.09 штиль 0 500 м туман ясно +0.9 +0.9 100 -1 -1 1011.3 995.2
18 17.09 С 1 500 м туман ясно -0.2 -0.2 100 -3 -3 1008.3 992.2
21 17.09 З 1 50 км {туман} 8/0
[Ac trans]
+3.2 +3.1 99 +1 +1 1005.8 989.9 -0.5
00 18.09 ЮЗ 1 4000 м слаб. ливневой дождь 10/10 600 м
[Cb cap]
+8.4 +8.2 99 +7 +7 1006.9 991.3
03 18.09 ЮЗ 3 4000 м слаб. ливневой дождь 10/10 600 м
[Cb cap]
+7.0 +6.2 95 +4 +4 1008.8 993.1
06 18.09 З 3
{12}
50 км {ливн. осадки} 8/8 600 м
[Cb cap]
+8.0 +3.7 74 +5 +6 1009.4 993.8
09 18.09 З 1 50 км 10/10 600 м
[Cb cap]
+5.3 +4.1 92 +4 +4 1010.2 994.4 +9.0 15
12 18.09 ЮЗ 1 20 км в посл. час ливневой дождь 10/10 600 м
[Cb cap]
+4.4 +4.2 99 +3 +3 1010.6 994.8
15 18.09 ЮЗ 2 20 км 10/10 600 м
[Cb cap]
+4.5 +3.1 91 +2 +2 1006.1 990.3
18 18.09 ЮЗ 2 н/о н/о +4.5 +3.1 91 +2 +2 1006.1 990.3
21 18.09 ЮЗ 2
{13}
50 км 10/10 600 м
[Sc]
+4.9 +2.3 83 +2 +2 1005.4 989.6 +3.7 3
00 19.09 ЮЗ 2 10 км слаб. ливневой дождь 10/10 600 м
[Cb cap]
+3.8 +3.3 97 +1 +1 1005.7 989.8
03 19.09 ЮЗ 1 10 км слаб. ливневой дождь 10/10 600 м
[Cb cap]
+4.2 +4.0 99 +3 +3 1007.6 991.8
06 19.09 ЮЗ 2 10 км слаб. ливневой дождь 10/10 600 м
[Cb cap]
+5.4 +5.2 99 +3 +3 1009.2 993.4
09 19.09 З 1 50 км {ливн. осадки} 10/10 600 м
[Cb cap]
+6.0 +5.9 99 +5 +5 1011.4 995.6 +6.0 15
12 19.09 ЮВ 1 10 км слаб. ливневой дождь 10/10 600 м
[Cb cap]
+5.8 +5.6 99 +4 +4 1012.6 996.8
15 19.09 штиль 0 20 км {ливн. осадки} ясно +2.9 +2.9 100 +2 +2 1013.8 997.8
18 19.09 штиль 0 20 км {ливн. осадки} ясно +0.5 +0.5 100 -1 -1 1014.9 998.7
21 19.09 штиль 0 50 км 10/10 600 м
[Sc]
+1.2 +1.2 100 -0 -0 1016.8 1000.7 -0.1 0.6
00 20.09 ЮЗ 1 50 км 10/10 600 м
[Sc]
+7.9 +7.8 99 +7 +7 1018.8 1003.0
03 20.09 З 2 50 км 8/8 600 м
[Cu hum]
+13.4 +6.3 62 +13 +15 1018.4 1002.9
06 20.09 СВ 1 50 км 6/6 600 м
[Cu hum]
+15.9 +5.9 51 +17 +19 1017.6 1002.3
09 20.09 штиль 0 50 км 3/0
[Ci fib]
+10.0 +9.0 93 +9 +9 1019.0 1003.3 +16.8
12 20.09 штиль 0 20 км ясно +3.7 +3.7 100 +2 +2 1021.0 1004.9
15 20.09 штиль 0 20 км ясно +1.8 +1.8 100 0 0 1021.4 1005.2
18 20.09 штиль 0 20 км ясно +1.5 +1.5 100 0 0 1020.5 1004.3
21 20.09 штиль 0 50 км ясно +0.5 +0.5 100 -1 -1 1020.2 1003.9 +0.5
00 21.09 В 1 10 км слаб. ливневой дождь 10/10 600 м
[Cb cap]
+7.3 +6.6 95 +6 +6 1019.2 1003.3 +0.5
03 21.09 В 1 50 км {ливн. осадки} 10/10 600 м
[Cb cap]
+8.3 +8.3 100 +7 +7 1018.7 1003.0
06 21.09 ЮЗ 1 50 км {ливн. осадки} 10/10 600 м
[Cb cap]
+10.2 +10.1 99 +10 +10 1018.7 1003.0
09 21.09 З 1 50 км 8/6 600 м
[Cu med, cong Ci fib]
+9.6 +9.4 99 +9 +9 1020.4 1004.7 +10.3 5
12 21.09 З 1 50 км ясно +8.7 +8.1 96 +8 +8 1022.4 1006.6
15 21.09 штиль 0 20 км 4/0
[Ci ing]
+7.9 +7.8 99 +7 +7 1022.7 1006.8
18 21.09 20 км н/о +7.9 +7.8 99 +7 +7 1022.9 1007.1
21 21.09 штиль 0 50 км 10/10 600 м
[Sc]
+7.3 +7.3 100 +6 +6 1024.3 1008.4 +6.5
00 22.09 З 1 50 км 6/6 600 м
[Sc]
+11.9 +9.1 83 +12 +14 1024.8 1009.1
03 22.09 ЮЗ 1 50 км 8/8 600 м
[Cu hum]
+15.3 +6.0 54 +16 +18 1024.0 1008.5
06 22.09 ЮЗ 1 50 км 1/1 600 м
[Cu hum]
+17.4 +5.5 45 +18 +23 1021.8 1006.5
09 22.09 штиль 0 50 км 3/0
[Cs]
+10.7 +9.2 90 +10 +10 1022.7 1007.0 +17.5
12 22.09 штиль 0 20 км ясно +4.3 +4.1 99 +3 +3 1023.5 1007.4
15 22.09 С 1 20 км ясно +1.6 +1.5 99 -0 -0 1022.5 1006.2
18 22.09 штиль 0 200 м туман ?/? +3.0 +2.9 99 +2 +2 1021.3 1005.2
21 22.09 штиль 0 200 м туман ?/? +3.1 +3.0 99 +2 +2 1020.2 1004.1 +1.3
00 23.09 В 1 50 км в посл. час туман 4/0
[Ci]
+6.3 +6.2 99 +5 +10 1018.4 1002.5

 

Местоположение метеостанции Красный Яр (Приморский край, Россия): широта 46.53 долгота 135.30 высота над уровнем моря 130 м.

В архиве по умолчанию представлена погода в Красном Яре за последнюю неделю. Архивные данные за месяц целиком и за предыдущие месяцы, начиная с января 2011 года, Вы можете получить, выбрав интересующий диапазон дат из раскрывающегося списка и нажав кнопку "Ввод!".


*Определитесь, кто Вы:
робот инопланетянин человек

Внимание! Время в таблицах - всемирное. Для получения местного времени необходимо прибавить поправку, которая равна 10 ч.

Смотрите также архив погоды в соседних городах и на ближайших метеорологических станциях:

Погода в Глубинном (Приморский край, Россия) (51 км)
Погода в Бикине (Хабаровский край, Россия) (89 км)
Погода в Лермонтовке (Хабаровский край, Россия) (103 км)
Погода в Вяземском (Хабаровский край, Россия) (119 км)
Погода в Мельничном (Приморский край, Россия) (121 км)
Погода в Бичевой (Хабаровский край, Россия) (140 км)
Погода в Гвасюгах (Хабаровский край, Россия) (141 км)
Погода в Дальнереченске (Приморский край, Россия) (143 км)
Погода в Малиново (Приморский край, Россия) (150 км)
Погода в Хоре (Хабаровский край, Россия) (151 км)

Пояснения к столбцам:

Ветер - указаны скорость ветра в м/с - средняя за 10 мин, порывы в срок и между сроками (в фигурных скобках) и направление, откуда дует ветер: С - северный, СВ - северо-восточный, В - восточный, ЮВ - юго-восточный, Ю - южный, ЮЗ - юго-западный, З - западный, СЗ - северо-западный.
Видимость - горизонтальная дальность видимости в метрах или километрах. При видимости от 1 до 10 км при отсутствии осадков обычно наблюдается дымка, при ухудшении видимости до 1 км и менее - туман. В сухую погоду видимость может ухудшаться дымом, пылью или мглою.
Явления - указаны атмосферные явления, наблюдавшиеся в срок или в последний час перед сроком; фигурными скобками обозначены явления, наблюдавшиеся между сроками (за 1-3 часа до срока); квадратными скобками обозначены град или гололедные отложения с указанием их диаметра в мм.
Облачность - указаны через наклонную черту общая и нижняя облачность в баллах и высота нижней границы облаков в метрах; квадратными скобками обозначены формы облаков: Ci - перистые, Cs - перисто-слоистые, Cc - перисто-кучевые, Ac - высококучевые, As - высокослоистые, Sc - слоисто-кучевые, Ns - слоисто-дождевые, Cu - кучевые, Cb - кучево-дождевые. Подробнее классификацию облаков см. в Атласе облаков (PDF).
T - Температура воздуха - температура, измеренная на высоте 2 м над землей.
Td - Температура точки росы - температура, при понижении до которой содержащийся в воздухе водяной пар достигнет насыщения.
f - Относительная влажность воздуха - влажноcть воздуха, измеренная на высоте 2 м над землей.
Te - Эффективная температура - температура, которую ощущает одетый по сезону человек в тени. Характеристика душности погоды. При расчете учитывается влияние влажности воздуха и скорости ветра на теплоощущения человека.
Tes - Эффективная температура на солнце - температура, которую ощущает человек, с поправкой на солнечный нагрев. Характеристика знойности погоды. Зависит от высоты солнца над горизонтом, облачности и скорости ветра. Ночью, в пасмурную погоду, а также при ветре 12 м/с и более поправка равна нулю.
P - Атмосферное давление - приведенное к уровню моря атмосферное давление.
Po - Атмосферное давление - измеренное на уровне метеостанции атмосферное давление.
Tmin - Минимальная температура - минимум температуры воздуха на высоте 2 м над землей.
Tmax - Максимальная температура - максимум температуры воздуха на высоте 2 м над землей.
R - Количество осадков - Количество выпавших осадков за период времени, мм. При наведении курсора мыши на число - период времени, за который выпало указанное количество осадков.
R24 - Количество осадков - Количество выпавших осадков за 24 часа, мм.
S - Снежный покров - Высота снежного покрова, см. При наведении курсора мыши на число - состояние снежного покрова и степень покрытия местности в баллах.